Météo par heure à Alhimovo

Ce jour, 29 Octobre, Jeudi

Heure Température Précipitation Vent Pression Humidité
00:00 +11°C° 0 mm 3 m/s 756 mmHg 91%
01:00 +11°C° 0 mm 3 m/s 756 mmHg 91%
02:00 +11°C° 0 mm 4 m/s 756 mmHg 93%
03:00 +11°C° 0 mm 3 m/s 756 mmHg 93%
04:00 +10°C° 0 mm 3 m/s 756 mmHg 94%
05:00 +10°C° 0 mm 3 m/s 756 mmHg 94%
06:00 +10°C° 0 mm 3 m/s 756 mmHg 95%
07:00 +10°C° 0 mm 3 m/s 755 mmHg 95%
08:00 +10°C° 0 mm 3 m/s 756 mmHg 96%
09:00 +10°C° 0 mm 3 m/s 756 mmHg 95%
10:00 +11°C° 0 mm 3 m/s 756 mmHg 94%
11:00 +11°C° 0 mm 3 m/s 756 mmHg 93%
12:00 +11°C° 0.1 mm 3 m/s 755 mmHg 92%
13:00 +11°C° 0.1 mm 3 m/s 755 mmHg 92%
14:00 +12°C° 0.1 mm 2 m/s 755 mmHg 92%
15:00 +12°C° 0.3 mm 2 m/s 755 mmHg 93%
16:00 +12°C° 0.3 mm 2 m/s 755 mmHg 94%
17:00 +12°C° 0.3 mm 2 m/s 755 mmHg 95%
18:00 +10°C° 0.2 mm 2 m/s 755 mmHg 95%
19:00 +10°C° 0.2 mm 2 m/s 755 mmHg 95%
20:00 +10°C° 0.2 mm 2 m/s 755 mmHg 95%
21:00 +10°C° 0.3 mm 2 m/s 755 mmHg 95%
22:00 +10°C° 0.3 mm 2 m/s 755 mmHg 95%
23:00 +10°C° 0.3 mm 2 m/s 755 mmHg 96%

Demain, 30 Octobre, Vendredi

Heure Température Précipitation Vent Pression Humidité
00:00 +10°C° 0.4 mm 2 m/s 755 mmHg 96%
01:00 +11°C° 0.4 mm 1 m/s 755 mmHg 97%
02:00 +11°C° 0.4 mm 1 m/s 755 mmHg 97%
03:00 +11°C° 0.2 mm 1 m/s 754 mmHg 97%
04:00 +11°C° 0.2 mm 1 m/s 754 mmHg 97%
05:00 +10°C° 0.2 mm 1 m/s 754 mmHg 97%
06:00 +9°C° 0.2 mm 0 m/s 754 mmHg 97%
07:00 +9°C° 0.2 mm 0 m/s 754 mmHg 97%
08:00 +9°C° 0.2 mm 0 m/s 755 mmHg 97%
09:00 +10°C° 0.1 mm 0 m/s 755 mmHg 96%
10:00 +10°C° 0.1 mm 0 m/s 755 mmHg 95%
11:00 +10°C° 0.1 mm 0 m/s 755 mmHg 94%
12:00 +10°C° 0.3 mm 0 m/s 755 mmHg 94%
13:00 +10°C° 0.3 mm 0 m/s 755 mmHg 95%
14:00 +11°C° 0.3 mm 1 m/s 755 mmHg 95%
15:00 +11°C° 0.2 mm 1 m/s 755 mmHg 95%
16:00 +10°C° 0.2 mm 1 m/s 755 mmHg 96%
17:00 +10°C° 0.2 mm 1 m/s 755 mmHg 96%
18:00 +10°C° 0.1 mm 1 m/s 755 mmHg 96%
19:00 +10°C° 0.1 mm 1 m/s 756 mmHg 96%
20:00 +10°C° 0.1 mm 1 m/s 756 mmHg 96%
21:00 +9°C° 0.1 mm 2 m/s 756 mmHg 96%
22:00 +9°C° 0.1 mm 2 m/s 757 mmHg 96%
23:00 +9°C° 0.1 mm 2 m/s 757 mmHg 96%

Après-demain, 31 Octobre, Samedi

Heure Température Précipitation Vent Pression Humidité
00:00 +9°C° 0.1 mm 2 m/s 757 mmHg 96%
01:00 +9°C° 0.1 mm 2 m/s 758 mmHg 96%
02:00 +9°C° 0.1 mm 2 m/s 758 mmHg 96%
03:00 +9°C° 0.1 mm 2 m/s 758 mmHg 95%
04:00 +9°C° 0.1 mm 3 m/s 759 mmHg 94%
05:00 +9°C° 0.1 mm 3 m/s 760 mmHg 94%
06:00 +9°C° 0 mm 3 m/s 760 mmHg 93%
07:00 +9°C° 0 mm 3 m/s 761 mmHg 93%
08:00 +8°C° 0 mm 3 m/s 761 mmHg 92%
09:00 +9°C° 0 mm 3 m/s 762 mmHg 90%
10:00 +9°C° 0 mm 3 m/s 762 mmHg 87%
11:00 +9°C° 0 mm 3 m/s 763 mmHg 85%
12:00 +9°C° 0 mm 2 m/s 763 mmHg 83%
13:00 +9°C° 0 mm 2 m/s 764 mmHg 81%
14:00 +10°C° 0 mm 2 m/s 764 mmHg 79%
15:00 +9°C° 0 mm 2 m/s 764 mmHg 83%
16:00 +8°C° 0 mm 2 m/s 764 mmHg 87%
17:00 +8°C° 0 mm 1 m/s 765 mmHg 91%
18:00 +7°C° 0 mm 1 m/s 765 mmHg 91%
19:00 +7°C° 0 mm 1 m/s 766 mmHg 92%
20:00 +7°C° 0 mm 1 m/s 766 mmHg 93%
21:00 +6°C° 0 mm 1 m/s 766 mmHg 93%
22:00 +6°C° 0 mm 1 m/s 766 mmHg 93%
23:00 +5°C° 0 mm 1 m/s 766 mmHg 93%

1 Novembre, Dimanche

Heure Température Précipitation Vent Pression Humidité
00:00 +5°C° 0 mm 1 m/s 766 mmHg 92%
01:00 +5°C° 0 mm 1 m/s 766 mmHg 92%
02:00 +5°C° 0 mm 1 m/s 767 mmHg 92%
03:00 +4°C° 0 mm 1 m/s 766 mmHg 92%
04:00 +4°C° 0 mm 1 m/s 766 mmHg 92%
05:00 +4°C° 0 mm 1 m/s 766 mmHg 93%
06:00 +4°C° 0 mm 1 m/s 766 mmHg 93%
07:00 +4°C° 0 mm 1 m/s 766 mmHg 94%
08:00 +4°C° 0 mm 1 m/s 766 mmHg 94%
09:00 +5°C° 0 mm 1 m/s 766 mmHg 90%
10:00 +6°C° 0 mm 1 m/s 766 mmHg 87%
11:00 +7°C° 0 mm 2 m/s 766 mmHg 83%
12:00 +7°C° 0 mm 2 m/s 766 mmHg 82%
13:00 +8°C° 0 mm 2 m/s 765 mmHg 81%
14:00 +8°C° 0 mm 2 m/s 765 mmHg 81%
15:00 +7°C° 0 mm 2 m/s 765 mmHg 85%
16:00 +6°C° 0 mm 2 m/s 765 mmHg 89%
17:00 +5°C° 0 mm 2 m/s 764 mmHg 93%
18:00 +5°C° 0 mm 2 m/s 764 mmHg 94%
19:00 +5°C° 0 mm 2 m/s 764 mmHg 95%
20:00 +5°C° 0 mm 2 m/s 764 mmHg 96%
21:00 +5°C° 0 mm 2 m/s 764 mmHg 95%
22:00 +3°C° 0 mm 3 m/s 763 mmHg 95%
23:00 +3°C° 0 mm 3 m/s 763 mmHg 95%

2 Novembre, Lundi

Heure Température Précipitation Vent Pression Humidité
00:00 +3°C° 0 mm 3 m/s 763 mmHg 95%
01:00 +3°C° 0 mm 3 m/s 763 mmHg 94%
02:00 +3°C° 0 mm 3 m/s 763 mmHg 94%
03:00 +3°C° 0 mm 3 m/s 762 mmHg 93%
04:00 +3°C° 0 mm 4 m/s 762 mmHg 92%
05:00 +1°C° 0 mm 4 m/s 762 mmHg 92%
06:00 +1°C° 0 mm 4 m/s 762 mmHg 91%
07:00 +1°C° 0 mm 4 m/s 761 mmHg 89%
08:00 +1°C° 0 mm 5 m/s 761 mmHg 88%
09:00 +2°C° 0 mm 5 m/s 761 mmHg 85%
10:00 +3°C° 0 mm 5 m/s 761 mmHg 81%
11:00 +3°C° 0 mm 5 m/s 761 mmHg 78%
12:00 +5°C° 0 mm 5 m/s 760 mmHg 77%
13:00 +5°C° 0 mm 5 m/s 760 mmHg 76%
14:00 +6°C° 0 mm 5 m/s 760 mmHg 76%
15:00 +5°C° 0 mm 5 m/s 760 mmHg 78%
16:00 +5°C° 0 mm 5 m/s 759 mmHg 80%
17:00 +3°C° 0 mm 5 m/s 759 mmHg 82%
18:00 +3°C° 0 mm 5 m/s 759 mmHg 82%
19:00 +3°C° 0 mm 5 m/s 760 mmHg 82%
20:00 +3°C° 0 mm 5 m/s 760 mmHg 83%
21:00 +3°C° 0 mm 5 m/s 760 mmHg 83%
22:00 +3°C° 0 mm 5 m/s 760 mmHg 82%
23:00 +3°C° 0 mm 6 m/s 760 mmHg 82%

3 Novembre, Mardi

Heure Température Précipitation Vent Pression Humidité
00:00 +3°C° 0 mm 5 m/s 760 mmHg 81%
01:00 +3°C° 0 mm 5 m/s 760 mmHg 81%
02:00 +3°C° 0 mm 5 m/s 760 mmHg 80%
03:00 +3°C° 0 mm 5 m/s 760 mmHg 80%
04:00 +3°C° 0 mm 5 m/s 760 mmHg 79%
05:00 +3°C° 0 mm 5 m/s 760 mmHg 79%
06:00 +3°C° 0 mm 6 m/s 760 mmHg 80%
07:00 +4°C° 0 mm 6 m/s 760 mmHg 81%
08:00 +4°C° 0 mm 6 m/s 761 mmHg 82%
09:00 +5°C° 0 mm 6 m/s 761 mmHg 79%
10:00 +7°C° 0 mm 6 m/s 761 mmHg 76%
11:00 +8°C° 0 mm 6 m/s 761 mmHg 73%
12:00 +9°C° 0 mm 6 m/s 761 mmHg 72%
13:00 +9°C° 0 mm 6 m/s 761 mmHg 72%
14:00 +9°C° 0 mm 5 m/s 762 mmHg 71%
15:00 +9°C° 0 mm 5 m/s 762 mmHg 75%
16:00 +8°C° 0 mm 5 m/s 762 mmHg 78%
17:00 +8°C° 0 mm 4 m/s 762 mmHg 82%
18:00 +7°C° 0 mm 4 m/s 763 mmHg 83%
19:00 +7°C° 0 mm 4 m/s 763 mmHg 84%
20:00 +7°C° 0 mm 4 m/s 763 mmHg 86%
21:00 +7°C° 0 mm 4 m/s 763 mmHg 88%
22:00 +6°C° 0 mm 4 m/s 764 mmHg 90%
23:00 +6°C° 0 mm 4 m/s 764 mmHg 92%
Voir plus

Nous avons besoin de votre consentement

Meteoprog et ses fournisseurs de services peuvent stocker et accéder à des données personnelles telles que des cookies, des identifiants d'appareils ou d'autres technologies similaires sur votre appareil et traiter ces données pour personnaliser le contenu et les publicités, ainsi que pour fournir des fonctionnalités de médias sociaux et analyser le trafic.

  • Stocker et/ou accéder à des informations sur votre appareil

    Des cookies, des identifiants d'appareils ou d'autres informations peuvent être stockés ou accessibles sur votre appareil aux fins indiquées ci-dessus.

  • Annonces et contenus personnalisés, mesure des annonces et des contenus, connaissance de l'audience et développement de produits

    Les annonces et le contenu peuvent être personnalisés en fonction d'un profil. D'autres données peuvent être ajoutées pour mieux personnaliser les annonces et le contenu. Les performances des publicités et du contenu peuvent être mesurées. Il est possible d'obtenir des informations sur le public qui a vu les publicités et le contenu. Ces données peuvent être utilisées pour développer ou améliorer l'expérience de l'utilisateur, les systèmes et les logiciels.

En cliquant sur "J'accepte", vous autorisez l'utilisation de cookies, des identifiants d'appareils, des balises web ou d'autres technologies similaires. Vos paramètres peuvent être modifiés dans le navigateur de votre appareil.

Dans certains cas, des intérêts légitimes peuvent être invoqués plutôt qu'un consentement. Vous pouvez en savoir plus à ce sujet dans notre Politique de confidentialité et de cookies.